Simultaneous Nadir Overpasses (SNOs) Predictions

Prediction of SNOs between AURA and NPP Satellite Orbit:

Table of predicted SNOs for the next 14.0 days since TLE Epoch: 3/3/2017
Index Date (AURA) Time (AURA) Lat,Lon (AURA) SZA (AURA ) Date (NPP) Time (NPP) Lat,Lon (NPP) SZA (NPP ) Distance(km) Time Diff (sec)
1 03/05/2017 19:08:39 -79.57, -29.69 81.58 03/05/2017 19:07:37 -79.58, -29.55 81.56 2.93 62
2 03/05/2017 19:58:00 79.75, 139.28 98.15 03/05/2017 19:58:16 79.75, 139.27 98.14 0.27 16
3 03/08/2017 11:25:09 -79.55, 86.07 82.61 03/08/2017 11:24:30 -79.55, 86.03 82.57 0.89 39
4 03/08/2017 12:14:27 79.84,-104.15 96.95 03/08/2017 12:15:05 79.85,-104.04 96.90 2.23 38
5 03/11/2017 03:41:38 -79.63,-157.48 83.79 03/11/2017 03:41:21 -79.63,-157.58 83.75 2.32 17
6 03/11/2017
